TimeEDT,TemperatureF,Dew PointF,Humidity,Sea Level PressureIn,VisibilityMPH,Wind Direction,Wind SpeedMPH,Gust SpeedMPH,PrecipitationIn,Events,Conditions,WindDirDegrees,DateUTC
12:51 AM,64.0,60.1,87,29.70,10.0,West,5.8,-,N/A,,Mostly Cloudy,260,2013-05-12 04:51:00
1:51 AM,64.0,55.0,73,29.69,10.0,WSW,9.2,-,N/A,,Mostly Cloudy,250,2013-05-12 05:51:00
2:51 AM,62.1,55.0,78,29.67,10.0,West,9.2,-,N/A,,Mostly Cloudy,270,2013-05-12 06:51:00
3:51 AM,62.1,53.1,72,29.69,10.0,West,5.8,-,N/A,,Overcast,270,2013-05-12 07:51:00
4:51 AM,62.1,51.1,67,29.69,10.0,WSW,3.5,-,N/A,,Overcast,240,2013-05-12 08:51:00
5:51 AM,61.0,51.1,70,29.71,10.0,West,6.9,-,0.00,Rain,Light Rain,260,2013-05-12 09:51:00
6:51 AM,59.0,48.9,69,29.72,10.0,West,11.5,-,0.00,Rain,Light Rain,260,2013-05-12 10:51:00
7:51 AM,59.0,46.0,62,29.72,10.0,West,9.2,-,0.00,,Mostly Cloudy,260,2013-05-12 11:51:00
8:51 AM,62.1,43.0,50,29.70,10.0,NW,11.5,-,N/A,,Mostly Cloudy,310,2013-05-12 12:51:00
9:51 AM,64.9,44.1,47,29.70,10.0,West,13.8,20.7,N/A,,Scattered Clouds,270,2013-05-12 13:51:00
10:51 AM,68.0,45.0,43,29.70,10.0,WNW,15.0,25.3,N/A,,Scattered Clouds,290,2013-05-12 14:51:00
11:51 AM,66.9,44.1,44,29.70,10.0,West,16.1,27.6,N/A,,Mostly Cloudy,270,2013-05-12 15:51:00
12:51 PM,69.1,39.9,35,29.69,10.0,West,19.6,27.6,N/A,,Mostly Cloudy,260,2013-05-12 16:51:00
1:51 PM,68.0,36.0,31,29.70,10.0,West,24.2,31.1,N/A,,Scattered Clouds,260,2013-05-12 17:51:00
2:51 PM,66.9,28.9,24,29.70,10.0,West,23.0,33.4,N/A,,Scattered Clouds,260,2013-05-12 18:51:00
3:51 PM,66.9,26.1,21,29.71,10.0,WSW,24.2,32.2,N/A,,Scattered Clouds,240,2013-05-12 19:51:00
4:51 PM,66.0,23.0,20,29.73,10.0,West,21.9,35.7,N/A,,Scattered Clouds,280,2013-05-12 20:51:00
5:51 PM,64.0,26.1,24,29.77,10.0,WSW,27.6,34.5,N/A,,Scattered Clouds,250,2013-05-12 21:51:00
6:51 PM,62.1,21.0,21,29.79,10.0,West,27.6,33.4,N/A,,Scattered Clouds,260,2013-05-12 22:51:00
7:51 PM,59.0,23.0,25,29.83,10.0,West,16.1,-,N/A,,Scattered Clouds,270,2013-05-12 23:51:00
8:51 PM,57.9,24.1,27,29.86,10.0,West,15.0,-,N/A,,Scattered Clouds,280,2013-05-13 00:51:00
9:51 PM,55.0,27.0,34,29.91,10.0,WNW,15.0,25.3,N/A,,Partly Cloudy,290,2013-05-13 01:51:00
10:51 PM,53.1,25.0,34,29.93,10.0,West,20.7,26.5,N/A,,Partly Cloudy,280,2013-05-13 02:51:00
11:51 PM,52.0,25.0,35,29.94,10.0,West,11.5,19.6,N/A,,Partly Cloudy,280,2013-05-13 03:51:00